Location: Newark
(41.8083°N, 72.2500°W)
Time: 08:16:15
(UTC+00:00)

Tiros 1 despin weight - Visible Passes

Search period start: 03 December 2021 00:00
Search period end: 13 December 2021 00:00
Orbit: 593 x 641 km, 48.2° (Epoch: 03 December)

Date Brightness Start Highest point End Pass type
(mag) Time Alt. Az. Time Alt. Az. Time Alt. Az.
03 Dec ? 00:48:04 10° WNW 00:48:26 12° W 00:48:26 12° W visible
03 Dec ? 21:40:54 10° WNW 21:45:05 39° N 21:49:15 10° E visible
03 Dec ? 23:22:27 10° WNW 23:26:53 82° SSW 23:27:13 75° SSE visible
04 Dec ? 21:57:07 10° WNW 22:01:25 51° NNE 22:05:44 10° E visible
04 Dec ? 23:38:43 10° WNW 23:42:57 47° SW 23:43:13 46° SSW visible
05 Dec ? 22:13:16 10° WNW 22:17:41 75° NNE 22:22:07 10° ESE visible
05 Dec ? 23:55:15 10° W 23:58:53 25° SW 23:59:27 25° SSW visible
06 Dec ? 22:29:27 10° WNW 22:33:50 67° SSW 22:38:12 10° SE visible
07 Dec ? 00:12:36 10° WSW 00:14:43 13° SW 00:16:00 12° SSW visible
07 Dec ? 22:45:47 10° WNW 22:49:50 37° SW 22:53:54 10° SSE visible
08 Dec ? 23:02:31 10° W 23:05:44 20° SW 23:08:56 10° S visible
10 Dec ? 21:52:53 10° W 21:56:42 29° SW 22:00:29 10° SSE visible
11 Dec ? 22:09:58 10° W 22:12:32 15° SW 22:15:05 10° S visible
